Regional Weather Roundup
Issued by NWS

Home | Current Version | Previous Version | Text Only | Print | Product List | Glossary On
Versions: 1 2 3 4 5 6 7 8 9 10 11 12 13 14 15 16 17 18 19 20 21 22 23 24 25 26 27 28 29 30 31 32 33 34 35 36 37 38 39 40 41 42 43 44 45 46 47 48 49 50
001
ASUS42 KTBW 172316
RWRFL
FLORIDA REGIONAL WEATHER ROUNDUP
NATIONAL WEATHER SERVICE TAMPA BAY RUSKIN FL
600 PM EST FRI NOV 17 2017

NOTE: "FAIR" INDICATES FEW OR NO CLOUDS BELOW 12,000 FEET WITH NO
SIGNIFICANT WEATHER AND/OR OBSTRUCTIONS TO VISIBILITY.

FLZ001>010-012>015-112-114-115-180000-
PANHANDLE FLORIDA

CITY           SKY/WX    TMP DP  RH WIND       PRES   REMARKS
PENSACOLA      CLEAR     67  58  72 S6        30.06R
PENSACOLA NAS  CLEAR     66  58  75 S7        30.05S
MILTON NAS     PTCLDY    65  60  84 S9        30.06
CRESTVIEW      MOCLDY    67  56  67 S3        30.08R
DUKE FIELD     MOCLDY    66  55  66 S6        30.06R
VALPARAISO     PTCLDY    66  56  69 SW3       30.06S
MARY ESTHER    CLEAR     67  57  71 SW3       30.05S
PANAMA CITY    FAIR      65  55  70 SW5       30.05S
TYNDALL AFB    CLEAR     64  55  73 S3        30.07S
APALACHICOLA   CLEAR     64  59  83 SE3       30.07S

STATION/POSITION SKY/WX   TEMP    WIND        PRES    WAVE   SWELL
                          AIR SEA DIR/SP/G            HT/PER HT/PER
                          (F)     (DEG/KT/KT) (MB)    (FT/S) (FT/S)
29.2N   88.2W              74 79  140/  4/  6 1017.6
28.8N   86.0W              70 77   40/  4/  6 1018.2R   1/ 4
PANAMA CITY BEAC NOT AVBL
TOWER C                    67     130/  8/  9 1019.0R
28.5N   84.5W              69 76   40/  6/  8 1018.1R   1/ 4

$$
FLZ011-016>038-118-127-128-134-139-239-180000-
NORTH FLORIDA

CITY           SKY/WX    TMP DP  RH WIND       PRES   REMARKS
MARIANNA       CLEAR     67  43  41 SE5       30.06S
TALLAHASSEE    PTCLDY    66  49  54 CALM      30.07S
PERRY            N/A     60  48  64 CALM      30.09
LIVE OAK       CLEAR    N/A N/A N/A CALM      30.09S
CROSS CITY     CLEAR     60  50  70 CALM      30.11S
LAKE CITY      MOCLDY    61  52  72 CALM      30.08R
GAINESVILLE    MOCLDY    65  53  65 NE5       30.09R
WILLISTON      CLEAR     66  54  63 CALM      30.06S
PALATKA        FAIR      66  57  72 NE6       30.08R
MAYPORT NAS    PTCLDY    65  60  84 N7        30.08S
JACKSONVILLE   MOCLDY    64  58  80 N8        30.10R
JAX NAS        PTCLDY    67  57  70 N9        30.09S
JAX CECIL      MOCLDY    63  57  82 E8        30.09R
ST AUGUSTINE   PTCLDY    65  59  81 N8        30.08S
PALM COAST     CLEAR     64  59  82 N6        30.07S

STATION/POSITION SKY/WX   TEMP    WIND        PRES    WAVE   SWELL
                          AIR SEA DIR/SP/G            HT/PER HT/PER
                          (F)     (DEG/KT/KT) (MB)    (FT/S) (FT/S)
SHELL POINT      NOT AVBL
KEATON BEACH               64     320/  4/  5 1018.4R
CEDAR KEY                  65     320/  5/  6 1018.4R
FERNANDINA       NOT AVBL
30.7N   81.3W                 67                N/A     4/ 4   2/11
MAYPORT          NOT AVBL
31.4N   80.9W              65 68   60/ 16/ 19 1019.1F   5/ 6   2/10
ST AUGUSTINE               68 69  350/ 13/ 14 1018.4F

$$
FLZ040-043>046-052-053-057-058-063-144-180000-
INTERIOR CENTRAL FLORIDA

CITY           SKY/WX    TMP DP  RH WIND       PRES   REMARKS
OCALA          CLEAR     66  52  60 CALM      30.06S
THE VILLAGES     N/A     70  54  56 CALM      29.96R
LEESBURG       PTCLDY    70  56  61 NE7       30.05S
SANFORD        CLEAR     67  55  65 E6        30.05S
ORLANDO EXEC   CLEAR     70  57  63 E9        30.05S
ORLANDO INTL   PTCLDY    69  56  62 NE9       30.05R
KISSIMMEE      CLEAR     70  56  61 E8        30.05S
WINTER HAVEN   CLEAR     71  57  61 E6        30.04S
LAKELAND       CLEAR     72  54  53 NE3       30.03F
BARTOW         FAIR      68  55  64 NE6       30.03S
SEBRING        FAIR      73  59  63 E7        30.03R
OKEECHOBEE     CLEAR     70  61  73 NE5       30.02R

$$
FLZ041-047-054-059-064-141-147-180000-
EAST CENTRAL FLORIDA

CITY           SKY/WX    TMP DP  RH WIND       PRES   REMARKS
ORMOND BEACH   PTCLDY    66  59  77 CALM      30.06F
DAYTONA BEACH  PTCLDY    68  58  70 CALM      30.06F
DELAND         CLEAR     68  57  68 NE3       30.05F
NEW SMYRNA BEA PTCLDY    68  55  64 CALM      30.06F
JFK SPACE CTR  MOCLDY    64  61  88 CALM      30.04S
TITUSVILLE     PTCLDY    72  57  60 NE8       30.06S
CAPE CANAVERAL CLEAR     68  57  69 N3        30.04S
PATRICK AFB    CLEAR     71  58  63 NE8       30.04R
MELBOURNE      PTCLDY    71  58  63 NE8       30.04R
VERO BEACH     CLEAR     70  58  65 NE6       30.04R
FT PIERCE      CLEAR     69  61  75 NE3       30.03R
STUART         PTCLDY    73  63  68 NE7       30.03

STATION/POSITION SKY/WX   TEMP    WIND        PRES    WAVE   SWELL
                          AIR SEA DIR/SP/G            HT/PER HT/PER
                          (F)     (DEG/KT/KT) (MB)    (FT/S) (FT/S)
28.5N   80.2W              74 76   60/ 12/ 16 1017.1R   4/ 9   3/ 9
TRIDENT PIER     NOT AVBL
27.5N   80.2W                 75                N/A     4/11   2/11

$$
FLZ050-056-061-142-242-148-248-149-249-151-251-155-255-
160-260-180000-
WEST CENTRAL FLORIDA

CITY           SKY/WX    TMP DP  RH WIND       PRES   REMARKS
CRYSTAL RIVER  FAIR      64  55  72 CALM      30.05S
INVERNESS      FAIR      63  54  72 CALM      30.06R
BROOKSVILLE    CLEAR     67  52  58 NW5       30.05S
CLEARWATER AIR FAIR      64  52  63 N5        30.04S
ST PETE CLEARW CLEAR     67  54  63 NW7       30.03S
TAMPA INTL     CLEAR     71  53  52 NW8       30.04R
TAMPA EXEC     CLEAR     64  54  68 CALM      30.04S
PLANT CITY     CLEAR     73  52  46 N3        30.05S
MACDILL AFB    CLEAR     68  55  64 NE3         N/A
PETER O KNIGHT   N/A     72  52  49 NE3       30.03S
ST PETERSBURG  CLEAR     72  52  49 N8        30.01S
SARASOTA       CLEAR     68  57  68 NW5       30.01S
VENICE         FAIR      72  61  68 NW7       30.03R

STATION/POSITION SKY/WX   TEMP    WIND        PRES    WAVE   SWELL
                          AIR SEA DIR/SP/G            HT/PER HT/PER
                          (F)     (DEG/KT/KT) (MB)    (FT/S) (FT/S)
CLEARWATER BEACH NOT AVBL
MIDDLE TAMPA BAY NOT AVBL
VENICE                     71 72  330/ 13/ 14 1016.7R

$$
FLZ066-069-070-075>078-162-262-165-265-180000-
SOUTHWEST FLORIDA AND KEYS

CITY           SKY/WX    TMP DP  RH WIND       PRES   REMARKS
PUNTA GORDA    PTCLDY    73  58  59 CALM      30.03R
FT MYERS       CLEAR     74  60  61 E3        30.00S
SOUTHWEST INTL CLOUDY    73  62  68 NE5       30.01R
NAPLES         PTCLDY    74  61  63 NE7       30.00R
MARCO ISLAND   CLEAR     74  62  66 NE6       30.01S
IMMOKALEE      CLOUDY    73  64  73 MISG      30.02R
MARATHON       MOCLDY    77  63  61 NE15      29.98R
KEY WEST NAS   MOCLDY    76  68  76 E9        29.99R
KEY WEST INTL  MOCLDY    77  65  66 E9        29.99S

STATION/POSITION SKY/WX   TEMP    WIND        PRES    WAVE   SWELL
                          AIR SEA DIR/SP/G            HT/PER HT/PER
                          (F)     (DEG/KT/KT) (MB)    (FT/S) (FT/S)
NAPLES           NOT AVBL
DRY TORTUGAS               76      60/ 12/ 15 1016.0S
SAND KEY                   76                 1016.1R
MOLASSES REEF              77 80   60/ 19/ 22 1015.2R

$$
FLZ067-068-071>074-168-172>174-180000-
SOUTHEAST FLORIDA

CITY           SKY/WX    TMP DP  RH WIND       PRES   REMARKS
W PALM BEACH   PTCLDY    74  58  57 NE10      30.01S
BOCA RATON     CLEAR     73  61  64 NE15      30.01S
FT LAUDER-EXEC PTCLDY    74  63  68 NE8       30.00S
FT LAUDERDALE  PTCLDY    74  62  66 NE10G20   29.99S
POMPANO BEACH  PTCLDY    75  61  61 NE14      30.00S
PEMBROKE PINES CLEAR     75  61  61 NE13      30.01S
OPA LOCKA      PTCLDY    75  64  68 NE10      30.00S
MIAMI          PTCLDY    76  62  62 NE10      29.99F
WEST KENDALL   CLEAR     74  61  63 NE12      29.99S
HOMESTEAD      PTCLDY    74  66  76 NE10      29.98S

STATION/POSITION SKY/WX   TEMP    WIND        PRES    WAVE   SWELL
                          AIR SEA DIR/SP/G            HT/PER HT/PER
                          (F)     (DEG/KT/KT) (MB)    (FT/S) (FT/S)
PORT EVERGLADES            76      40/ 10/ 19 1015.9R
FOWEY ROCKS                76 79   40/ 20/ 22 1016.1F
SETTLEMENT POINT           74      30/ 13/ 14 1016.4R

$$





USA.gov is the U.S. government's official web portal to all federal, state and local government web resources and services.